Погода в Хатассах

Россия / Республика Саха (Якутия)     61°54′21″N   129°37′52″E
темп.,
°C
ветер,
м/с
пор.,
м/с
влажн.,
%
обл.,
%
осадки,
мм/ч
давл.,
гПа
погр.,
м
27 февраля, сб
сб2700:00−33св2210074 0.0 103219
03:00−34св1210081 0.0 103119
06:00−34всв2210090 0.0 103020
09:00−32св229887 0.0 102954
12:00−26всв349399 0.0 1028281
15:00−23всв469399 0.0 1023406
18:00−25всв4695100 0.0 1023120
21:00−26св3595100 0.0 102089
28 февраля, вс
вс2800:00−27ссв3496100 0.0 101894
03:00−29с2396100 0.0 101656
06:00−29с3493100 0.0 101784
09:00−28зсз3592100 0.0 1018198
12:00−24зсз3687100 0.0 1020395
15:00−23зсз5888100 0.0 1020627
18:00−25з4896100 0.1 1023479
21:00−26зсз4896100 0.4 1024465
1 марта, пн
пн100:00−26з3895100 0.2 1025351
03:00−27з4894100 0.3 1025378
06:00−28з3893100 0.1 1025332
09:00−27з4791100 0.1 1026657
12:00−26зсз4685100 0.1 1026905
15:00−25зсз4683100 0.1 1026959
18:00−27зсз3492100 0.1 102781
21:00−30з3394100 0.1 102752
2 марта, вт
вт200:00−32з239599 0.0 102730
03:00−34з229797 0.0 102623
06:00−35з129898 0.0 102719
09:00−33з129595 0.0 102746
12:00−28з238591 0.0 1026452
15:00−27зсз238296 0.0 1026654
18:00−30зсз1192100 0.0 102619
21:00−31зсз1191100 0.0 102619
3 марта, ср
ср300:00−31зсз1190100 0.0 102619
03:00−31зсз1192100 0.0 102519
06:00−31зсз1197100 0.1 102519
09:00−30сз1196100 0.1 102485
12:00−28ссз1287100 0.1 1022435
15:00−27ссз2383100 0.1 1021666
18:00−29сз2394100 0.1 102035
21:00−31зсз3495100 0.1 101992